Simultaneous Nadir Overpasses (SNOs) Predictions

Prediction of SNOs between FY3D and NOAA-19 Satellite Orbit:

Table of predicted SNOs for the next 14.0 days since TLE Epoch: 8/26/2022
Index Date (FY3D) Time (FY3D) Lat,Lon (FY3D) SZA (FY3D ) Date (NOAA-19) Time (NOAA-19) Lat,Lon (NOAA-19) SZA (NOAA-19 ) Distance(km) Time Diff (sec)
1 08/31/2022 17:36:22 76.84, -97.31 68.69 08/31/2022 17:35:18 76.84,-101.07 68.94 95.19 64
2 08/31/2022 18:27:18 -77.29, 68.08 110.76 08/31/2022 18:26:13 -77.26, 68.09 110.77 3.47 65
3 08/31/2022 19:18:03 77.26,-124.46 69.22 08/31/2022 19:17:07 77.28,-124.53 69.26 3.09 56
4 08/31/2022 20:08:49 -77.28, 42.76 110.75 08/31/2022 20:08:12 -77.29, 42.75 110.73 1.52 37
5 08/31/2022 20:59:35 77.29,-149.97 69.28 08/31/2022 20:59:07 77.28,-150.07 69.28 2.77 28
6 08/31/2022 21:50:21 -77.31, 17.25 110.69 08/31/2022 21:50:12 -77.28, 17.20 110.71 3.03 9
7 08/31/2022 22:41:07 77.32,-175.49 69.34 08/31/2022 22:41:06 77.31,-175.41 69.33 2.33 1
8 08/31/2022 23:31:52 -77.30, -8.07 110.68 08/31/2022 23:32:11 -77.31, -8.14 110.66 2.71 19
9 09/01/2022 00:22:38 77.31, 159.19 69.35 09/01/2022 00:23:06 77.30, 159.05 69.35 3.56 28
10 09/01/2022 01:13:24 -77.33, -33.58 110.62 09/01/2022 01:14:11 -77.31, -33.68 110.64 3.26 47
11 09/01/2022 02:04:10 77.34, 133.68 69.41 09/01/2022 02:05:05 77.33, 133.71 69.39 1.00 55
12 09/01/2022 02:54:56 -77.35, -59.09 110.56 09/01/2022 02:56:10 -77.34, -59.03 110.60 2.54 74
13 09/01/2022 03:45:51 77.74, 106.39 69.95 09/01/2022 03:46:56 77.68, 109.98 69.66 85.42 65



Historial Predications of SNOs between FY3D and NOAA-19
